SWA2232 KLAX-KBNA

Flight info

Callsign SWA2232
Flight time N/A
Altitude 37000
Route DOTSS2 CLEEE PKE J96 LANCY KEYKE INW KA36Y/N0434F390 TUL LOPPY CHSNE3
Aircraft B738/M-SDE2E3FGHIRWXY/LB1

Departure

Time N/A
Airport Los Angeles International Airport (KLAX)

Arrival

Time 2026-05-04 18:04
Airport Nashville International Airport (KBNA)
Time Latitude Longitude Altitude Speed Heading
2026-05-04 17:34 35.79110 -89.74792 38955 ft 512 kts 94°
2026-05-04 17:35 35.77215 -89.54502 38957 ft 511 kts 94°
2026-05-04 17:36 35.76393 -89.45812 38961 ft 511 kts 94°
2026-05-04 17:36 35.75565 -89.37132 38968 ft 510 kts 94°
2026-05-04 17:37 35.74731 -89.28443 38665 ft 516 kts 94°
2026-05-04 17:37 35.74308 -89.24055 38107 ft 516 kts 94°
2026-05-04 17:37 35.73884 -89.19687 37573 ft 512 kts 95°
2026-05-04 17:37 35.73461 -89.15353 37021 ft 509 kts 95°
2026-05-04 17:38 35.73040 -89.11049 36481 ft 506 kts 95°
2026-05-04 17:38 35.72619 -89.06761 35936 ft 503 kts 95°
2026-05-04 17:38 35.72200 -89.02503 35382 ft 501 kts 95°
2026-05-04 17:38 35.71779 -88.98247 34796 ft 499 kts 96°
2026-05-04 17:39 35.70946 -88.89852 33550 ft 496 kts 96°
2026-05-04 17:39 35.70527 -88.85653 32892 ft 494 kts 96°
2026-05-04 17:39 35.70133 -88.81472 32253 ft 490 kts 93°
2026-05-04 17:40 35.70211 -88.77309 31723 ft 484 kts 83°
2026-05-04 17:40 35.70586 -88.73216 31296 ft 477 kts 81°
2026-05-04 17:40 35.71023 -88.69188 30832 ft 472 kts 80°
2026-05-04 17:40 35.71454 -88.65200 30385 ft 468 kts 81°
2026-05-04 17:41 35.71858 -88.61238 29927 ft 464 kts 81°
2026-05-04 17:41 35.72230 -88.57314 29413 ft 459 kts 82°
2026-05-04 17:41 35.72579 -88.53430 28965 ft 454 kts 82°
2026-05-04 17:41 35.72913 -88.49585 28505 ft 449 kts 82°
2026-05-04 17:42 35.73236 -88.45825 28070 ft 446 kts 82°
2026-05-04 17:42 35.73569 -88.41949 27619 ft 456 kts 82°
2026-05-04 17:42 35.73903 -88.38069 27172 ft 465 kts 82°
2026-05-04 17:42 35.74239 -88.34136 26700 ft 460 kts 83°
2026-05-04 17:43 35.74570 -88.30237 26241 ft 454 kts 82°
2026-05-04 17:43 35.74897 -88.26396 25791 ft 449 kts 83°
2026-05-04 17:43 35.75220 -88.22590 25348 ft 444 kts 83°
2026-05-04 17:43 35.75537 -88.18833 24908 ft 440 kts 83°
2026-05-04 17:44 35.75760 -88.15091 24470 ft 436 kts 87°
2026-05-04 17:44 35.75835 -88.11365 24034 ft 433 kts 89°
2026-05-04 17:44 35.75853 -88.07676 23584 ft 430 kts 89°
2026-05-04 17:44 35.75863 -88.04014 23094 ft 426 kts 89°
2026-05-04 17:45 35.75882 -88.00374 22633 ft 422 kts 89°
2026-05-04 17:45 35.75914 -87.96780 22192 ft 418 kts 89°
2026-05-04 17:45 35.75953 -87.93222 21767 ft 413 kts 89°
2026-05-04 17:45 35.75997 -87.89707 21348 ft 409 kts 89°
2026-05-04 17:46 35.76041 -87.86228 20936 ft 405 kts 89°
2026-05-04 17:46 35.76084 -87.82775 20531 ft 401 kts 89°
2026-05-04 17:46 35.76125 -87.79388 20134 ft 399 kts 89°
2026-05-04 17:46 35.76165 -87.75980 19735 ft 397 kts 90°
2026-05-04 17:47 35.76204 -87.72570 19337 ft 400 kts 90°
2026-05-04 17:47 35.76249 -87.69120 19073 ft 405 kts 88°
2026-05-04 17:47 35.76763 -87.65751 18760 ft 399 kts 68°
2026-05-04 17:47 35.77791 -87.62597 18443 ft 395 kts 66°
2026-05-04 17:48 35.78829 -87.59457 18062 ft 396 kts 67°
2026-05-04 17:48 35.79845 -87.56309 17676 ft 395 kts 68°
2026-05-04 17:48 35.80836 -87.53161 17329 ft 391 kts 68°
2026-05-04 17:48 35.81805 -87.50037 16968 ft 389 kts 68°
2026-05-04 17:49 35.82764 -87.46940 16628 ft 386 kts 68°
2026-05-04 17:49 35.83783 -87.43889 16287 ft 383 kts 66°
2026-05-04 17:49 35.84848 -87.40883 15948 ft 381 kts 65°
2026-05-04 17:49 35.85919 -87.37904 15620 ft 379 kts 65°
2026-05-04 17:50 35.86984 -87.34937 15288 ft 378 kts 65°
2026-05-04 17:50 35.88024 -87.32017 14967 ft 376 kts 66°
2026-05-04 17:50 35.89069 -87.29063 14639 ft 375 kts 66°
2026-05-04 17:50 35.90106 -87.26117 14311 ft 373 kts 66°
2026-05-04 17:51 35.91136 -87.23184 13983 ft 372 kts 66°
2026-05-04 17:51 35.92160 -87.20259 13653 ft 371 kts 66°
2026-05-04 17:51 35.93177 -87.17349 13282 ft 369 kts 66°
2026-05-04 17:51 35.94190 -87.14450 12943 ft 367 kts 67°
2026-05-04 17:52 35.95197 -87.11565 12613 ft 364 kts 67°
2026-05-04 17:52 35.96198 -87.08692 12292 ft 362 kts 68°
2026-05-04 17:52 35.97190 -87.05843 11975 ft 361 kts 68°
2026-05-04 17:52 35.98177 -87.03006 11662 ft 359 kts 68°
2026-05-04 17:53 35.99159 -87.00181 11350 ft 355 kts 68°
2026-05-04 17:53 36.00125 -86.97402 11035 ft 349 kts 68°
2026-05-04 17:53 36.01062 -86.94704 10737 ft 344 kts 69°
2026-05-04 17:53 36.01998 -86.92003 10424 ft 339 kts 69°
2026-05-04 17:54 36.02921 -86.89339 10131 ft 335 kts 69°
2026-05-04 17:54 36.03830 -86.86714 9887 ft 329 kts 69°
2026-05-04 17:54 36.04727 -86.84188 9892 ft 315 kts 65°
2026-05-04 17:54 36.06070 -86.82079 9476 ft 320 kts 37°
2026-05-04 17:55 36.08013 -86.80793 9068 ft 312 kts 19°
2026-05-04 17:55 36.10049 -86.79980 8751 ft 301 kts 14°
2026-05-04 17:55 36.12032 -86.79265 8462 ft 292 kts 14°
2026-05-04 17:55 36.13952 -86.78553 8216 ft 286 kts 15°
2026-05-04 17:56 36.15850 -86.77833 7933 ft 285 kts 14°
2026-05-04 17:56 36.17765 -86.77153 7564 ft 287 kts 13°
2026-05-04 17:56 36.19705 -86.76499 7143 ft 290 kts 13°
2026-05-04 17:56 36.21634 -86.75861 6797 ft 291 kts 12°
2026-05-04 17:57 36.23602 -86.75238 6423 ft 293 kts 12°
2026-05-04 17:57 36.25583 -86.74606 6062 ft 294 kts 13°
2026-05-04 17:57 36.27563 -86.73972 5745 ft 292 kts 12°
2026-05-04 17:57 36.29510 -86.73333 5478 ft 288 kts 15°
2026-05-04 17:58 36.31267 -86.72245 5274 ft 277 kts 37°
2026-05-04 17:58 36.32512 -86.70531 5107 ft 260 kts 60°
2026-05-04 17:58 36.33111 -86.68512 4993 ft 241 kts 78°
2026-05-04 17:58 36.33446 -86.66531 4877 ft 229 kts 80°
2026-05-04 17:59 36.33725 -86.64637 4741 ft 218 kts 86°
2026-05-04 17:59 36.33522 -86.62841 4595 ft 206 kts 117°
2026-05-04 17:59 36.31320 -86.61371 4115 ft 183 kts 196°
2026-05-04 18:00 36.30084 -86.61704 3871 ft 181 kts 192°
2026-05-04 18:00 36.28869 -86.61964 3635 ft 177 kts 198°
2026-05-04 18:00 36.27697 -86.62381 3431 ft 175 kts 201°
2026-05-04 18:00 36.26524 -86.62833 3170 ft 175 kts 201°
2026-05-04 18:01 36.25365 -86.63296 2929 ft 174 kts 201°
2026-05-04 18:01 36.24221 -86.63750 2730 ft 173 kts 201°
2026-05-04 18:01 36.23064 -86.64204 2487 ft 176 kts 200°
2026-05-04 18:02 36.20795 -86.65073 2017 ft 162 kts 203°
2026-05-04 18:02 36.19752 -86.65510 1816 ft 154 kts 199°
2026-05-04 18:02 36.18784 -86.65912 1623 ft 141 kts 206°
2026-05-04 18:02 36.17871 -86.66286 1452 ft 139 kts 196°
2026-05-04 18:03 36.16939 -86.66584 1295 ft 135 kts 198°
2026-05-04 18:03 36.16074 -86.66953 1123 ft 132 kts 200°
2026-05-04 18:03 36.15182 -86.67293 966 ft 133 kts 197°
2026-05-04 18:03 36.14295 -86.67640 736 ft 135 kts 196°
2026-05-04 18:04 36.13436 -86.67991 594 ft 121 kts 197°
2026-05-04 18:04 36.12730 -86.68271 574 ft 87 kts 197°
2026-05-04 18:04 36.12178 -86.68469 571 ft 17 kts 149°
2026-05-04 18:05 36.12136 -86.68342 577 ft 16 kts 91°
2026-05-04 18:05 36.12214 -86.68268 574 ft 15 kts 17°
2026-05-04 18:05 36.12330 -86.68224 572 ft 20 kts 16°
2026-05-04 18:05 36.12475 -86.68174 573 ft 23 kts 15°
2026-05-04 18:06 36.12834 -86.68045 576 ft 30 kts 18°
2026-05-04 18:06 36.13042 -86.67962 572 ft 32 kts 18°
2026-05-04 18:06 36.13254 -86.67879 576 ft 32 kts 17°
2026-05-04 18:07 36.13451 -86.67802 575 ft 27 kts 18°
2026-05-04 18:07 36.13523 -86.67713 575 ft 15 kts 106°
2026-05-04 18:07 36.13485 -86.67570 572 ft 21 kts 108°
2026-05-04 18:07 36.13437 -86.67381 570 ft 22 kts 107°
2026-05-04 18:08 36.13318 -86.67347 567 ft 20 kts 198°
2026-05-04 18:08 36.13200 -86.67361 573 ft 13 kts 153°
2026-05-04 18:08 36.13183 -86.67266 568 ft 11 kts 58°
2026-05-04 18:08 36.13219 -86.67216 571 ft 5 kts 45°
2026-05-04 18:09 36.13230 -86.67202 570 ft 0 kts 45°